Observations for Trim Market St
| Time | AQI | Temp °C | Hum % | Pres Pa | CO μg/m³ | H₂S μg/m³ | NO μg/m³ | NO₂ μg/m³ | O₃ μg/m³ | SO₂ μg/m³ | PM1 μg/m³ | PM2.5 μg/m³ | PM10 μg/m³ |
|---|---|---|---|---|---|---|---|---|---|---|---|---|---|
| Sunday 12 July 2026 | |||||||||||||
| 02:04 | 1 | 18.8 | 76 | 28,009 | 0.04 | 0 | 0 | 3.23 | 10.13 | 0 | 8.55 | 9.92 | 15.2 |
| 02:02 | 1 | 18.9 | 76 | 28,422 | 0.05 | 0 | 0 | 4 | 10.05 | 0 | 6.41 | 8.49 | 12.84 |
| 02:01 | 1 | 18.9 | 76 | 28,585 | 0.02 | 0 | 0 | 2.71 | 11.8 | 0 | 8.55 | 9.45 | 13.44 |
| 01:58 | 1 | 18.9 | 76 | 29,140 | 1.52 | 0 | 9.23 | 10.52 | 1.31 | 0 | 13.54 | 14.71 | 19.95 |
| 01:57 | 1 | 18.9 | 76 | 29,165 | 0.18 | 0 | 3.96 | 15.52 | 0 | 0 | 10.69 | 12.8 | 18.76 |
| 01:56 | 1 | 18.9 | 76 | 29,194 | 0.03 | 0 | 0 | 1.22 | 14.99 | 0 | 8.55 | 8.98 | 12.85 |
| 01:53 | 1 | 19 | 76 | 29,176 | 0.03 | 0 | 0 | 3.8 | 10.05 | 0 | 7.84 | 8.98 | 14.03 |
| 01:47 | 1 | 19 | 76 | 30,273 | 0.02 | 0 | 0 | 2.22 | 11.89 | 0 | 7.13 | 8.51 | 12.27 |
| 01:43 | 1 | 19.1 | 76 | 30,868 | 0.03 | 0 | 0 | 1.2 | 9.2 | 0 | 7.13 | 9.95 | 14.65 |
| 01:40 | 1 | 19.1 | 76 | 31,479 | 0.02 | 0 | 0 | 0.31 | 15.76 | 0 | 7.13 | 10.44 | 14.65 |
| 01:38 | 1 | 19.1 | 76 | 31,447 | 0 | 0 | 0 | 2.51 | 11.65 | 0 | 5.7 | 8.05 | 11.69 |
| 01:37 | 1 | 19.1 | 76 | 31,595 | 0.01 | 0 | 0 | 1.11 | 7.52 | 0 | 7.13 | 8.53 | 12.28 |
| 01:36 | 1 | 19.1 | 76 | 31,767 | 0.03 | 0 | 0 | 11.53 | 22.05 | 0 | 6.41 | 9.01 | 13.47 |
| 01:35 | 1 | 19.1 | 76 | 32,040 | 0.01 | 0 | 0 | 2.43 | 11.05 | 0 | 6.41 | 6.62 | 9.91 |
| 01:34 | 1 | 19.1 | 76 | 32,086 | 0.02 | 0 | 0 | 3.73 | 10.5 | 0 | 7.13 | 8.53 | 12.28 |
| 01:33 | 1 | 19.2 | 76 | 32,166 | 0.01 | 0 | 0 | 3.3 | 8.17 | 0 | 7.13 | 9.01 | 12.88 |
| 01:32 | 1 | 19.2 | 76 | 32,239 | 0.01 | 0 | 0 | 4 | 14.3 | 0 | 7.13 | 8.06 | 11.69 |
| 01:31 | 1 | 19.2 | 75 | 32,407 | 0.06 | 0 | 0 | 1.41 | 10.18 | 0 | 6.41 | 8.54 | 13.48 |
| 01:28 | 1 | 19.2 | 75 | 33,106 | 0.02 | 0 | 0 | 8.02 | 20.45 | 0 | 7.84 | 10.46 | 15.87 |
| 01:26 | 1 | 19.2 | 75 | 33,560 | 0.01 | 0 | 0 | 3.82 | 5.71 | 0 | 7.13 | 8.55 | 12.29 |